Date String (YYYY-MM-DD hh:mm:ss) UTC,Instrument flags,absolute air pressure of the measurement (hPa),sample flow rate (lpm),inlet stack bypass flow (lpm),air temperature of the measurement (°C),ambient temperature measured by the external sensor (°C),aerosol sample conditioner tube jacket temperature (°C),OPC LED temperature (°C),internal box temperature (°C),relative humidity of the measurement (%),span deviation,mass concentration of particles derived from Lorenz-Mie calculation of OPC scattering (μg/m³),mass concentration of particles derived from Lorenz-Mie calculation of OPC scattering (μg/m³),mass concentration of particles derived from Lorenz-Mie calculation of OPC scattering (μg/m³)
DateTimeUTC,F1_M11,P_M11,Q1_M11,Q2_M11,T1_M11,T2_M11,T3_M11,T4_M11,T5_M11,U1_M11,ZSPAN_M11,X0_M11,X2_M11,X1_M11
2024-03-04 14:00:00,SystemResetWarning,0823.4,5.00,000.00,018.4,017.8,000.0,027.0,020.1,14.5,0000.0,0006.62,0001.35,0000.73
2024-03-04 14:01:00,SystemResetWarning,0823.4,5.00,000.00,018.4,017.7,000.0,027.0,020.1,14.3,0000.0,0006.63,0001.35,0000.75
2024-03-04 14:02:00,SystemResetWarning,0823.4,5.00,000.00,018.3,017.6,000.0,027.0,020.0,14.2,0000.0,0006.72,0001.41,0000.78
2024-03-04 14:03:00,SystemResetWarning,0823.4,5.00,000.00,018.3,017.6,000.0,027.0,020.0,14.3,0000.0,0006.98,0001.46,0000.80
2024-03-04 14:04:00,SystemResetWarning,0823.4,5.01,000.00,018.3,017.5,000.0,027.0,020.0,14.4,0000.0,0007.26,0001.52,0000.81
2024-03-04 14:05:00,SystemResetWarning,0823.4,5.00,000.00,018.3,017.5,000.0,027.0,020.0,14.5,0000.0,0007.80,0001.60,0000.82
2024-03-04 14:06:00,SystemResetWarning,0823.5,5.00,000.00,018.3,017.5,000.0,027.0,020.0,14.4,0000.0,0007.58,0001.60,0000.81
2024-03-04 14:07:00,SystemResetWarning,0823.5,5.01,000.00,018.3,017.7,000.0,027.0,020.2,14.3,0000.0,0008.08,0001.62,0000.82
2024-03-04 14:08:00,SystemResetWarning,0823.5,4.99,000.00,018.5,018.6,000.0,027.1,020.7,14.3,0000.0,0007.89,0001.65,0000.82
2024-03-04 14:09:00,SystemResetWarning,0823.6,4.99,000.00,018.7,019.1,000.0,027.2,021.0,14.2,0000.0,0007.71,0001.59,0000.82
2024-03-04 14:10:00,SystemResetWarning,0823.6,4.99,000.00,018.8,019.0,000.0,027.1,020.9,14.0,0000.0,0007.75,0001.59,0000.82
2024-03-04 14:11:00,SystemResetWarning,0823.5,5.00,000.00,018.8,018.8,000.0,027.1,020.7,14.0,0000.0,0007.97,0001.63,0000.80
2024-03-04 14:12:00,SystemResetWarning,0823.5,5.02,000.00,018.8,018.7,000.0,027.1,020.7,14.0,0000.0,0008.09,0001.64,0000.80
2024-03-04 14:13:00,SystemResetWarning,0823.5,5.01,000.00,018.7,018.5,000.0,027.1,020.6,14.1,0000.0,0008.09,0001.63,0000.79
2024-03-04 14:14:00,SystemResetWarning,0823.4,5.00,000.00,018.7,018.4,000.0,027.1,020.5,14.1,0000.0,0007.91,0001.55,0000.78
2024-03-04 14:15:00,SystemResetWarning,0823.5,4.99,000.00,018.7,018.3,000.0,027.1,020.5,14.2,0000.0,0007.74,0001.50,0000.77
2024-03-04 14:16:00,SystemResetWarning,0823.5,5.00,000.00,018.7,018.2,000.0,027.1,020.4,14.2,0000.0,0007.04,0001.42,0000.76
2024-03-04 14:17:00,SystemResetWarning,0823.4,5.01,000.00,018.6,018.1,000.0,027.1,020.4,14.2,0000.0,0006.65,0001.35,0000.75
2024-03-04 14:18:00,SystemResetWarning,0823.4,5.01,000.00,018.6,018.0,000.0,027.1,020.3,14.3,0000.0,0005.42,0001.31,0000.74
2024-03-04 14:19:00,SystemResetWarning,0823.4,5.00,000.00,018.6,018.0,000.0,027.1,020.3,14.5,0000.0,0005.90,0001.26,0000.73
2024-03-04 14:20:00,SystemResetWarning,0823.4,4.98,000.00,018.6,017.9,000.0,027.1,020.3,14.5,0000.0,0006.16,0001.26,0000.72
2024-03-04 14:21:00,SystemResetWarning,0823.4,5.00,000.00,018.5,017.9,000.0,027.1,020.3,14.3,0000.0,0007.13,0001.29,0000.72
2024-03-04 14:22:00,SystemResetWarning,0823.4,5.00,000.00,018.5,017.9,000.0,027.1,020.2,14.2,0000.0,0006.62,0001.27,0000.71
2024-03-04 14:23:00,SystemResetWarning,0823.5,5.00,000.00,018.5,017.9,000.0,027.0,020.3,14.3,0000.0,0006.87,0001.23,0000.70
2024-03-04 14:24:00,SystemResetWarning,0823.5,5.00,000.00,018.5,017.9,000.0,027.0,020.2,14.5,0000.0,0006.94,0001.18,0000.68
2024-03-04 14:25:00,SystemResetWarning,0823.5,5.01,000.00,018.5,017.9,000.0,027.0,020.2,14.5,0000.0,0007.14,0001.18,0000.68
2024-03-04 14:26:00,SystemResetWarning,0823.5,5.00,000.00,018.5,017.8,000.0,027.0,020.2,14.6,0000.0,0007.32,0001.20,0000.67
2024-03-04 14:27:00,SystemResetWarning,0823.6,5.00,000.00,018.4,017.8,000.0,027.0,020.2,14.8,0000.0,0007.36,0001.20,0000.65
2024-03-04 14:28:00,SystemResetWarning,0823.5,5.00,000.00,018.4,017.8,000.0,027.0,020.2,15.0,0000.0,0007.45,0001.23,0000.64
2024-03-04 14:29:00,SystemResetWarning,0823.5,5.00,000.00,018.4,017.8,000.0,027.0,020.2,15.0,0000.0,0007.71,0001.24,0000.65
2024-03-04 14:30:00,SystemResetWarning,0823.5,5.00,000.00,018.4,017.7,000.0,027.0,020.1,14.9,0000.0,0006.92,0001.23,0000.64
2024-03-04 14:31:00,SystemResetWarning,0823.5,4.99,000.00,018.4,017.7,000.0,027.0,020.1,15.0,0000.0,0006.17,0001.24,0000.65
2024-03-04 14:32:00,SystemResetWarning,0823.5,4.98,000.00,018.4,017.7,000.0,026.9,020.1,15.0,0000.0,0004.85,0001.21,0000.65
2024-03-04 14:33:00,SystemResetWarning,0823.5,5.01,000.00,018.4,017.7,000.0,026.9,020.1,14.9,0000.0,0004.93,0001.25,0000.64
2024-03-04 14:34:00,SystemResetWarning,0823.5,5.00,000.00,018.4,017.7,000.0,026.9,020.0,14.8,0000.0,0005.62,0001.29,0000.64
2024-03-04 14:35:00,SystemResetWarning,0823.5,5.01,000.00,018.3,017.7,000.0,026.9,020.0,14.9,0000.0,0006.66,0001.35,0000.64
2024-03-04 14:36:00,SystemResetWarning,0823.5,4.99,000.00,018.3,017.7,000.0,026.9,020.1,14.7,0000.0,0007.38,0001.41,0000.64
2024-03-04 14:37:00,SystemResetWarning,0823.5,4.99,000.00,018.3,017.6,000.0,026.9,020.0,14.3,0000.0,0007.76,0001.44,0000.64
2024-03-04 14:38:00,SystemResetWarning,0823.5,5.00,000.00,018.3,017.6,000.0,026.9,020.0,14.1,0000.0,0007.70,0001.42,0000.65
2024-03-04 14:39:00,SystemResetWarning,0823.6,5.01,000.00,018.3,017.6,000.0,026.9,020.0,14.0,0000.0,0007.66,0001.41,0000.65
2024-03-04 14:40:00,SystemResetWarning,0823.6,5.01,000.00,018.3,017.6,000.0,026.9,020.0,13.9,0000.0,0007.39,0001.38,0000.64
2024-03-04 14:41:00,SystemResetWarning,0823.7,5.01,000.00,018.3,017.8,000.0,026.9,020.2,13.8,0000.0,0007.43,0001.40,0000.64
2024-03-04 14:42:00,SystemResetWarning,0823.8,5.00,000.00,018.5,018.8,000.0,027.1,020.8,13.5,0000.0,0008.05,0001.37,0000.63
2024-03-04 14:43:00,SystemResetWarning,0823.8,5.00,000.00,018.8,019.5,000.0,027.1,021.3,13.5,0000.0,0008.51,0001.38,0000.62
2024-03-04 14:44:00,SystemResetWarning,0823.8,4.99,000.00,018.9,019.4,000.0,027.1,021.1,13.5,0000.0,0008.94,0001.39,0000.62
2024-03-04 14:45:00,SystemResetWarning,0823.7,4.99,000.00,018.9,019.2,000.0,027.1,021.1,13.5,0000.0,0008.65,0001.36,0000.62
2024-03-04 14:46:00,SystemResetWarning,0823.7,5.01,000.00,019.0,019.0,000.0,027.1,021.0,13.4,0000.0,0007.91,0001.29,0000.61
2024-03-04 14:47:00,SystemResetWarning,0823.6,5.01,000.00,019.0,018.9,000.0,027.2,020.9,13.5,0000.0,0007.75,0001.29,0000.61
2024-03-04 14:48:00,SystemResetWarning,0823.6,5.01,000.00,018.9,018.8,000.0,027.2,020.8,13.6,0000.0,0007.31,0001.28,0000.62
2024-03-04 14:49:00,SystemResetWarning,0823.6,4.99,000.00,018.9,018.7,000.0,027.2,020.8,13.8,0000.0,0007.43,0001.28,0000.61
2024-03-04 14:50:00,SystemResetWarning,0823.6,4.99,000.00,018.9,018.6,000.0,027.2,020.7,13.7,0000.0,0007.42,0001.25,0000.60
2024-03-04 14:51:00,SystemResetWarning,0823.6,5.01,000.00,018.9,018.5,000.0,027.2,020.7,13.6,0000.0,0007.46,0001.27,0000.61
2024-03-04 14:52:00,SystemResetWarning,0823.6,5.01,000.00,018.9,018.4,000.0,027.2,020.7,13.4,0000.0,0006.96,0001.27,0000.60
2024-03-04 14:53:00,SystemResetWarning,0823.6,5.00,000.00,018.8,018.4,000.0,027.2,020.6,13.6,0000.0,0005.81,0001.26,0000.60
2024-03-04 14:54:00,SystemResetWarning,0823.6,4.99,000.00,018.8,018.3,000.0,027.2,020.6,13.7,0000.0,0004.96,0001.23,0000.59
2024-03-04 14:55:00,SystemResetWarning,0823.6,5.00,000.00,018.8,018.3,000.0,027.2,020.6,13.5,0000.0,0004.08,0001.16,0000.58
2024-03-04 14:56:00,SystemResetWarning,0823.6,5.00,000.00,018.8,018.3,000.0,027.3,020.6,13.6,0000.0,0003.66,0001.11,0000.58
2024-03-04 14:57:00,SystemResetWarning,0823.6,5.01,000.00,018.8,018.2,000.0,027.2,020.5,13.5,0000.0,0003.37,0001.13,0000.59
2024-03-04 14:58:00,SystemResetWarning,0823.6,4.99,000.00,018.8,018.2,000.0,027.2,020.5,13.5,0000.0,0002.77,0001.09,0000.58
2024-03-04 14:59:00,SystemResetWarning,0823.6,4.99,000.00,018.8,018.2,000.0,027.2,020.5,13.7,0000.0,0002.95,0001.03,0000.57
